Вернуться в каталог

STARLINK-34186

АктивенСвязьVLEO
NORAD 64145·PAYLOAD·🇺🇸 United States

Запущен May 24, 2025 с Cape Canaveral Space Force Station

Loading…

Ближайшие Пролёты (ближайшие 24 часа)

TLE

СвежийSource: CelesTrak SupGP

Эпоха: Sep 15, 2026, 02:12 UTC

1 64145C 25111Y   26258.09215278  .00020261  00000+0  73381-3 0  2580
2 64145  43.0033  88.3541 0001812 274.4188 261.0669 15.27568966    16

Отслеживайте STARLINK-34186 в реальном времени с AllMySat

Download on the App Store